Rechercher aéroport 
image banner adimage banner ad
image banner ad

DAOV - Ghriss

Situé à Ghriss, Algeria

ICAO - DAOV, IATA - MUW

Données fournies par Airmate  

Information générale

Coordonnées: N35°13'1" E0°8'54"
Élévation : 1686 feet MSL.
 
Voir autres Aéroports à Mascara Province

Données opérationnelles

Accessible au public
Heure actuelle UTC:
Heure actuelle locale:
Météo
METAR: DAOV 291000Z 01004KT CAVOK 19/M01 Q1027
TAF: TAF COR DAOV 290800Z 2909/2918 VRB02KT CAVOK BECMG 2912/2915 36010KT
Voir NOTAMs / SUP AIP / TFR affectant cet aéroport [VIEW]
Fréquences de communication: [VIEW]

Pistes:

Identifiant RWYQFULongueur (ft)Largeur (ft)SurfaceLDA (ft)
0882°557798ASP
26262°557798

Coordonnées de l'aéroport

Adresse: Ghriss Algeria

Vue satellite de DAOV